Home   Weather   Herford   Past weeks

Flag for Germany Past Weather in Herford, North Rhine-Westphalia, Germany — Yesterday and Last 2 Weeks

Now
68 °F

Passing clouds.


Feels Like: 68 °F
Forecast: 51 / 63 °F
Wind: 20 mph from West

Location: Bueckeburg

Current Time: Sep 29, 2016 at 10:36:46 PM

Latest Report: Sep 29, 2016 at 9:20 PM


Visibility: N/A

Pressure: 29.83 "Hg

Humidity: 64%

Dew Point: 55 °F

Location of HerfordLocation

Past Weather in Herford — Graph

°F

Herford Temperature Yesterday

Maximum temperature yesterday: 70 °F (at 2:20 PM)
Minimum temperature yesterday: 59 °F (at 1:20 AM)
Average temperature yesterday: 65 °F

High & Low Weather Summary for the Past Weeks

 TemperatureHumidityPressure
High82 °F (Sep 15, 4:20 PM)100% (Sep 17, 12:20 PM)30.30 "Hg (Sep 17, 12:20 PM)
Low46 °F (Sep 19, 5:20 AM)34% (Sep 15, 6:20 PM)29.83 "Hg (Sep 29, 9:20 PM)
Average62 °F69%30.09 "Hg
* Reported Sep 14 9:20 PM — Sep 29 9:20 PM, Herford, Weather by CustomWeather, © 2016

Note: Actual official high and low records may vary slightly from our data, if they occured in-between our weather recording intervals... More about our weather records

Advertising

Herford Weather History for the Previous 24 Hours

Scroll right to see more
 ConditionsComfort  
Time TempWeatherWind HumidityBarometerVisibility
9:20 PM
Thu, Sep 29
68 °FPassing clouds.20 mph64%29.83 "HgN/A
8:20 PM68 °FPassing clouds.17 mph64%29.86 "HgN/A
7:20 PM70 °FPassing clouds.20 mph57%29.86 "HgN/A
6:20 PM72 °FScattered clouds.20 mph53%29.86 "HgN/A
5:20 PM72 °FScattered clouds.23 mph53%29.86 "HgN/A
4:20 PM73 °FPassing clouds.21 mph50%29.86 "HgN/A
3:20 PM73 °FPassing clouds.20 mph47%29.89 "HgN/A
2:20 PM73 °FScattered clouds.20 mph50%29.89 "HgN/A
1:20 PM73 °FPartly sunny.20 mph50%29.89 "HgN/A
12:20 PM70 °FPartly sunny.18 mph60%29.92 "HgN/A
11:20 AM68 °FPartly sunny.20 mph60%29.98 "HgN/A
10:20 AM66 °FPartly sunny.22 mph64%29.98 "HgN/A
9:20 AM66 °FBroken clouds.16 mph64%30.01 "HgN/A
8:20 AM64 °FBroken clouds.17 mph68%30.01 "HgN/A
7:20 AM66 °FPassing clouds.16 mph60%30.04 "HgN/A
6:20 AM66 °FPassing clouds.18 mph56%30.04 "HgN/A
5:20 AM66 °FPartly cloudy.16 mph56%30.07 "HgN/A
4:20 AM66 °FPassing clouds.18 mph64%30.07 "HgN/A
3:20 AM66 °FPassing clouds.17 mph64%30.09 "HgN/A
2:20 AM66 °FPassing clouds.16 mph64%30.09 "HgN/A
1:20 AM66 °FPassing clouds.15 mph64%30.12 "HgN/A
12:20 AM66 °FPartly cloudy.13 mph60%30.15 "HgN/A
11:20 PM
Wed, Sep 28
66 °FPartly cloudy.12 mph60%30.15 "HgN/A
10:20 PM66 °FPartly cloudy.10 mph60%30.15 "HgN/A
Weather by CustomWeather, © 2016

See weather overviewHow to use our weather pages